Change the Weather History Date:

Thursday, September 26, 2013

  Actual Average (KHVN) Record (KHVN)
Temperature  
Mean Temperature 57 °F -  
Max Temperature 64 °F 67 °F 82 °F (1970)
Min Temperature 50 °F 52 °F 45 °F (1974)
Degree Days  
Heating Degree Days 8    
Growing Degree Days 7 (Base 50)    
Moisture  
Dew Point 50 °F    
Average Humidity 79    
Maximum Humidity 100    
Minimum Humidity 49    
Precipitation  
Precipitation 0.00 in - - ()
Sea Level Pressure  
Sea Level Pressure 30.04 in    
Wind  
Wind Speed 3 mph (NE)    
Max Wind Speed 8 mph    
Max Gust Speed -    
Visibility 10 miles    
Events Rain    
Averages and records for this station are not official NWS values.
T = Trace of Precipitation, MM = Missing Value Source: NWS Daily Summary

Daily Weather History Graph

Daily Weather History Graph

Search for Another Location

Airport or City:

Trip Planner

Search our weather history database for the weather conditions in past years. The results will help you decide how hot, cold, wet, or windy it might be!

Date:

Astronomy

Sep. 26, 2013 Rise Set
Actual Time 6:41 AM EDT 6:39 PM EDT
Civil Twilight 6:14 AM EDT 7:07 PM EDT
Nautical Twilight 5:42 AM EDT 7:39 PM EDT
Astronomical Twilight 5:09 AM EDT 8:12 PM EDT
Moon 11:32 PM EDT (9/26) 1:35 PM EDT (9/26)
Length of Visible Light 12h 53m
Length of Day
11h 58m
Waning Gibbous, 55% of the Moon is Illuminated
Sep 26
Waning Gibbous
Sep 26
Last Quarter
Oct 4
New
Oct 11
First Quarter
Oct 18
Full

Hourly Weather History & Observations

Time (EDT) Temp. Dew Point Humidity Pressure Visibility Wind Dir Wind Speed Gust Speed Precip Events Conditions
12:15 AM 57.2 °F 55.4 °F 94% 29.98 in 10.0 mi East 3.5 mph - N/A   Overcast
12:35 AM 57.2 °F 55.4 °F 94% 29.98 in 10.0 mi NE 3.5 mph - N/A   Overcast
12:55 AM 57.2 °F 55.4 °F 94% 29.98 in 10.0 mi East 3.5 mph - N/A   Overcast
1:15 AM 57.2 °F 55.4 °F 94% 29.98 in 10.0 mi ENE 4.6 mph - N/A   Overcast
1:35 AM 57.2 °F 53.6 °F 88% 29.98 in 10.0 mi ENE 4.6 mph - N/A   Overcast
1:55 AM 57.2 °F 53.6 °F 88% 29.98 in 10.0 mi ENE 3.5 mph - N/A   Overcast
2:15 AM 57.2 °F 53.6 °F 88% 29.98 in 10.0 mi ENE 3.5 mph - N/A   Overcast
2:35 AM 57.2 °F 53.6 °F 88% 29.98 in 10.0 mi East 4.6 mph - N/A   Overcast
2:55 AM 57.2 °F 53.6 °F 88% 29.98 in 10.0 mi Calm Calm - N/A   Overcast
3:15 AM 55.4 °F 53.6 °F 94% 29.98 in 10.0 mi Calm Calm - N/A   Overcast
3:35 AM 55.4 °F 53.6 °F 94% 29.98 in 10.0 mi NE 3.5 mph - N/A   Overcast
3:55 AM 55.4 °F 51.8 °F 88% 29.98 in 10.0 mi NE 3.5 mph - N/A   Overcast
4:15 AM 55.4 °F 51.8 °F 88% 29.99 in 10.0 mi NE 4.6 mph - N/A   Overcast
4:35 AM 55.4 °F 51.8 °F 88% 29.99 in 10.0 mi NNE 3.5 mph - N/A   Overcast
4:55 AM 55.4 °F 51.8 °F 88% 29.99 in 10.0 mi Calm Calm - N/A   Overcast
5:15 AM 55.4 °F 50.0 °F 82% 30.00 in 10.0 mi Calm Calm - N/A   Overcast
5:35 AM 55.4 °F 51.8 °F 88% 30.00 in 10.0 mi Calm Calm - N/A   Overcast
5:55 AM 55.4 °F 51.8 °F 88% 30.00 in 10.0 mi Calm Calm - N/A   Mostly Cloudy
6:15 AM 53.6 °F 51.8 °F 94% 30.01 in 10.0 mi North 3.5 mph - N/A   Partly Cloudy
6:35 AM 53.6 °F 51.8 °F 94% 30.01 in 10.0 mi Calm Calm - N/A   Clear
6:55 AM 51.8 °F 50.0 °F 94% 30.02 in 10.0 mi Calm Calm - N/A   Clear
7:15 AM 51.8 °F 51.8 °F 100% 30.02 in 10.0 mi NNE 3.5 mph - N/A   Partly Cloudy
7:35 AM 53.6 °F 50.0 °F 88% 30.03 in 10.0 mi Calm Calm - N/A   Scattered Clouds
7:55 AM 55.4 °F 50.0 °F 82% 30.03 in 10.0 mi North 3.5 mph - N/A Rain Light Rain
8:15 AM 55.4 °F 50.0 °F 82% 30.04 in 10.0 mi Calm Calm - N/A   Partly Cloudy
8:35 AM 55.4 °F 50.0 °F 82% 30.04 in 10.0 mi NNE 3.5 mph - N/A   Mostly Cloudy
8:55 AM 57.2 °F 50.0 °F 77% 30.04 in 10.0 mi NE 4.6 mph - N/A   Overcast
9:15 AM 57.2 °F 50.0 °F 77% 30.05 in 10.0 mi NE 5.8 mph - N/A   Mostly Cloudy
9:35 AM 57.2 °F 50.0 °F 77% 30.06 in 10.0 mi NE 6.9 mph - N/A   Overcast
9:55 AM 59.0 °F 50.0 °F 72% 30.06 in 10.0 mi ENE 5.8 mph - N/A   Overcast
10:15 AM 59.0 °F 50.0 °F 72% 30.06 in 10.0 mi NE 4.6 mph - N/A   Mostly Cloudy
10:35 AM 60.8 °F 48.2 °F 63% 30.06 in 10.0 mi NNE 5.8 mph - N/A   Mostly Cloudy
10:55 AM 60.8 °F 50.0 °F 68% 30.06 in 10.0 mi North 6.9 mph - N/A   Overcast
11:15 AM 60.8 °F 48.2 °F 63% 30.06 in 10.0 mi NE 4.6 mph - N/A   Overcast
11:35 AM 62.6 °F 48.2 °F 59% 30.06 in 10.0 mi NNE 6.9 mph - N/A   Mostly Cloudy
11:55 AM 62.6 °F 48.2 °F 59% 30.06 in 10.0 mi North 6.9 mph - N/A   Overcast
12:15 PM 62.6 °F 48.2 °F 59% 30.06 in 10.0 mi ENE 5.8 mph - N/A   Overcast
12:35 PM 62.6 °F 48.2 °F 59% 30.06 in 10.0 mi NNW 6.9 mph - N/A   Overcast
12:55 PM 62.6 °F 48.2 °F 59% 30.06 in 10.0 mi NE 5.8 mph - N/A   Overcast
1:15 PM 62.6 °F 48.2 °F 59% 30.05 in 10.0 mi North 5.8 mph - N/A   Overcast
1:35 PM 62.6 °F 48.2 °F 59% 30.05 in 10.0 mi ENE 3.5 mph - N/A   Overcast
1:55 PM 62.6 °F 46.4 °F 55% 30.05 in 10.0 mi North 5.8 mph - N/A   Overcast
2:15 PM 62.6 °F 46.4 °F 55% 30.04 in 10.0 mi North 5.8 mph - N/A   Mostly Cloudy
2:35 PM 62.6 °F 46.4 °F 55% 30.04 in 10.0 mi NNE 6.9 mph - N/A   Mostly Cloudy
2:55 PM 64.4 °F 44.6 °F 49% 30.04 in 10.0 mi North 8.1 mph - N/A   Partly Cloudy
3:15 PM 64.4 °F 46.4 °F 52% 30.04 in 10.0 mi NNE 5.8 mph - N/A   Clear
3:35 PM 64.4 °F 46.4 °F 52% 30.04 in 10.0 mi NNE 4.6 mph - N/A   Clear
3:55 PM 64.4 °F 46.4 °F 52% 30.04 in 10.0 mi NNW 8.1 mph - N/A   Clear
4:15 PM 64.4 °F 46.4 °F 52% 30.04 in 10.0 mi NE 5.8 mph - N/A   Clear
4:35 PM 64.4 °F 46.4 °F 52% 30.04 in 10.0 mi NNE 4.6 mph - N/A   Clear
4:55 PM 64.4 °F 46.4 °F 52% 30.05 in 10.0 mi NNE 5.8 mph - N/A   Clear
5:15 PM 64.4 °F 46.4 °F 52% 30.05 in 10.0 mi NE 4.6 mph - N/A   Clear
5:35 PM 62.6 °F 46.4 °F 55% 30.05 in 10.0 mi NE 4.6 mph - N/A   Clear
5:55 PM 62.6 °F 48.2 °F 59% 30.06 in 10.0 mi Calm Calm - N/A   Clear
6:15 PM 62.6 °F 48.2 °F 59% 30.06 in 10.0 mi Calm Calm - N/A   Clear
6:35 PM 57.2 °F 51.8 °F 82% 30.07 in 10.0 mi Calm Calm - N/A   Clear
6:55 PM 55.4 °F 53.6 °F 94% 30.07 in 10.0 mi Calm Calm - N/A   Clear
7:15 PM 55.4 °F 51.8 °F 88% 30.07 in 10.0 mi Calm Calm - N/A   Clear
7:35 PM 53.6 °F 51.8 °F 94% 30.08 in 10.0 mi Calm Calm - N/A   Clear
7:55 PM 53.6 °F 51.8 °F 94% 30.09 in 10.0 mi Calm Calm - N/A   Clear
8:15 PM 53.6 °F 51.8 °F 94% 30.09 in 10.0 mi Calm Calm - N/A   Clear
8:35 PM 53.6 °F 51.8 °F 94% 30.10 in 10.0 mi Calm Calm - N/A   Clear
8:55 PM 51.8 °F 50.0 °F 94% 30.10 in 10.0 mi Calm Calm - N/A   Clear
9:15 PM 51.8 °F 50.0 °F 94% 30.11 in 10.0 mi Calm Calm - N/A   Clear
9:35 PM 51.8 °F 50.0 °F 94% 30.11 in 10.0 mi Calm Calm - N/A   Clear
9:55 PM 51.8 °F 50.0 °F 94% 30.12 in 10.0 mi Calm Calm - N/A   Clear
10:15 PM 51.8 °F 50.0 °F 94% 30.12 in 10.0 mi Calm Calm - N/A   Clear
10:35 PM 51.8 °F 50.0 °F 94% 30.12 in 10.0 mi Calm Calm - N/A   Clear
10:55 PM 50.0 °F 50.0 °F 100% 30.12 in 10.0 mi Calm Calm - N/A   Clear
11:15 PM 50.0 °F 50.0 °F 100% 30.12 in 10.0 mi Calm Calm - N/A   Clear
11:35 PM 50.0 °F 50.0 °F 100% 30.12 in 10.0 mi Calm Calm - N/A   Clear
11:55 PM 50.0 °F 50.0 °F 100% 30.12 in 10.0 mi Calm Calm - N/A   Clear